Weather History for KLAF - September, 2012

Change the Weather History Date:

Sunday, September 16, 2012

  Actual Average Record
Temperature  
Mean Temperature 62 °F 66 °F  
Max Temperature 76 °F 78 °F 88 °F (1978)
Min Temperature 48 °F 54 °F 37 °F (1984)
Degree Days  
Heating Degree Days 3 2  
Month to date heating degree days 19 19  
Since 1 July heating degree days 22 25  
Cooling Degree Days 0 3  
Month to date cooling degree days 72 81  
Year to date cooling degree days 1179 933  
Growing Degree Days 12 (Base 50)    
Moisture  
Dew Point 49 °F    
Average Humidity 65    
Maximum Humidity 96    
Minimum Humidity 33    
Precipitation  
Precipitation 0.00 in 0.08 in 1.20 in (1980)
Month to date precipitation 3.13 1.44  
Year to date precipitation 20.54 26.99  
Sea Level Pressure  
Sea Level Pressure 30.10 in    
Wind  
Wind Speed 2 mph (South)    
Max Wind Speed 12 mph    
Max Gust Speed 15 mph    
Visibility 10 miles    
Events      
T = Trace of Precipitation, MM = Missing Value Source: NWS Daily Summary

Daily Weather History Graph

Daily Weather History Graph

Search for Another Location

Airport or City:

Trip Planner

Search our weather history database for the weather conditions in past years. The results will help you decide how hot, cold, wet, or windy it might be!

Date:

Astronomy

Sep. 16, 2012 Rise Set
Actual Time 7:29 AM EDT 7:54 PM EDT
Civil Twilight 7:02 AM EDT 8:21 PM EDT
Nautical Twilight 6:30 AM EDT 8:53 PM EDT
Astronomical Twilight 5:57 AM EDT 9:26 PM EDT
Moon 8:09 AM EDT (9/16) 7:58 PM EDT (9/16)
Length of Visible Light 13h 18m
Length of Day
12h 24m
New Moon, 0% of the Moon is Illuminated
Sep 16
New Moon
Sep 22
First Quarter
Sep 29
Full
Oct 8
Last Quarter
Oct 15
New

Hourly Weather History & Observations

Time (EDT) Temp. Dew Point Humidity Pressure Visibility Wind Dir Wind Speed Gust Speed Precip Events Conditions
12:54 AM 53.1 °F 51.1 °F 93% 30.17 in 10.0 mi NNW 3.5 mph - N/A   Clear
1:54 AM 53.1 °F 51.1 °F 93% 30.16 in 10.0 mi Calm Calm - N/A   Clear
2:54 AM 51.1 °F 50.0 °F 96% 30.15 in 10.0 mi Calm Calm - N/A   Clear
3:54 AM 51.1 °F 48.9 °F 92% 30.14 in 10.0 mi Calm Calm - N/A   Clear
4:00 AM 50.0 °F 48.2 °F 94% 30.14 in 1.8 mi Calm Calm - N/A   Clear
4:16 AM 51.8 °F 50.0 °F 94% 30.14 in 10.0 mi Calm Calm - N/A   Clear
4:54 AM 50.0 °F 48.9 °F 96% 30.14 in 9.0 mi Calm Calm - N/A   Clear
5:54 AM 50.0 °F 48.9 °F 96% 30.14 in 10.0 mi Calm Calm - N/A   Clear
6:54 AM 50.0 °F 48.0 °F 93% 30.15 in 10.0 mi Calm Calm - N/A   Clear
7:54 AM 48.9 °F 46.9 °F 93% 30.16 in 7.0 mi Calm Calm - N/A   Clear
8:54 AM 54.0 °F 52.0 °F 93% 30.16 in 10.0 mi Calm Calm - N/A   Clear
9:54 AM 60.1 °F 52.0 °F 75% 30.16 in 10.0 mi Calm Calm - N/A   Clear
10:54 AM 66.0 °F 52.0 °F 60% 30.15 in 10.0 mi East 3.5 mph - N/A   Clear
11:54 AM 70.0 °F 50.0 °F 49% 30.13 in 10.0 mi Calm Calm - N/A   Clear
12:54 PM 72.0 °F 48.0 °F 43% 30.11 in 10.0 mi South 4.6 mph - N/A   Clear
1:54 PM 73.9 °F 46.9 °F 38% 30.09 in 10.0 mi SSE 8.1 mph - N/A   Clear
2:54 PM 73.9 °F 46.9 °F 38% 30.06 in 10.0 mi SE 5.8 mph - N/A   Clear
3:54 PM 75.0 °F 46.0 °F 36% 30.04 in 10.0 mi Calm Calm - N/A   Clear
4:54 PM 73.9 °F 46.9 °F 38% 30.03 in 10.0 mi South 8.1 mph - N/A   Clear
5:54 PM 75.0 °F 45.0 °F 34% 30.01 in 10.0 mi SSW 3.5 mph - N/A   Clear
6:54 PM 73.9 °F 46.9 °F 38% 30.01 in 10.0 mi SSW 3.5 mph - N/A   Clear
7:54 PM 66.9 °F 50.0 °F 54% 30.01 in 10.0 mi Calm Calm - N/A   Clear
8:54 PM 62.1 °F 53.1 °F 72% 30.01 in 10.0 mi Calm Calm - N/A   Clear
9:54 PM 59.0 °F 52.0 °F 78% 30.02 in 10.0 mi Calm Calm - N/A   Clear
10:54 PM 57.9 °F 51.1 °F 78% 30.02 in 10.0 mi Calm Calm - N/A   Clear
11:54 PM 57.0 °F 52.0 °F 83% 30.01 in 10.0 mi Calm Calm - N/A   Clear